TimeCDT,TemperatureF,Dew PointF,Humidity,Sea Level PressureIn,VisibilityMPH,Wind Direction,Wind SpeedMPH,Gust SpeedMPH,PrecipitationIn,Events,Conditions,WindDirDegrees,DateUTC
12:15 AM,64.4,51.8,64,30.14,10.0,South,8.1,-,N/A,,Clear,170,2013-05-15 05:15:00
12:35 AM,64.4,53.6,68,30.15,10.0,South,8.1,-,N/A,,Clear,170,2013-05-15 05:35:00
12:55 AM,64.4,53.6,68,30.14,10.0,South,5.8,-,N/A,,Clear,170,2013-05-15 05:55:00
1:15 AM,62.6,53.6,72,30.14,10.0,South,8.1,-,N/A,,Clear,170,2013-05-15 06:15:00
1:35 AM,62.6,55.4,77,30.13,10.0,SSE,6.9,-,N/A,,Clear,160,2013-05-15 06:35:00
1:55 AM,62.6,55.4,77,30.14,10.0,SSE,4.6,-,N/A,,Scattered Clouds,160,2013-05-15 06:55:00
2:15 AM,62.6,55.4,77,30.13,10.0,SSE,6.9,-,N/A,,Overcast,160,2013-05-15 07:15:00
2:35 AM,62.6,57.2,82,30.13,10.0,South,8.1,-,N/A,,Overcast,180,2013-05-15 07:35:00
2:55 AM,64.4,57.2,77,30.14,10.0,SSW,8.1,-,N/A,,Overcast,200,2013-05-15 07:55:00
3:15 AM,64.4,60.8,88,30.13,10.0,SSW,8.1,-,N/A,,Overcast,210,2013-05-15 08:15:00
3:35 AM,66.2,60.8,83,30.13,10.0,SSW,9.2,-,N/A,,Overcast,210,2013-05-15 08:35:00
3:55 AM,66.2,60.8,83,30.13,10.0,SSW,6.9,-,N/A,,Overcast,200,2013-05-15 08:55:00
4:15 AM,66.2,60.8,83,30.12,10.0,SSW,6.9,-,N/A,,Overcast,210,2013-05-15 09:15:00
4:35 AM,66.2,60.8,83,30.12,10.0,SSW,8.1,-,N/A,,Overcast,210,2013-05-15 09:35:00
4:55 AM,66.2,60.8,83,30.12,10.0,South,6.9,-,N/A,,Overcast,190,2013-05-15 09:55:00
5:15 AM,66.2,60.8,83,30.12,10.0,SSW,9.2,-,N/A,,Overcast,210,2013-05-15 10:15:00
5:35 AM,66.2,60.8,83,30.12,10.0,South,3.5,-,N/A,,Overcast,180,2013-05-15 10:35:00
5:55 AM,64.4,60.8,88,30.12,10.0,South,5.8,-,N/A,,Overcast,170,2013-05-15 10:55:00
6:15 AM,64.4,60.8,88,30.12,10.0,South,4.6,-,N/A,,Overcast,190,2013-05-15 11:15:00
6:35 AM,66.2,60.8,83,30.11,10.0,South,5.8,-,N/A,,Overcast,190,2013-05-15 11:35:00
6:55 AM,64.4,60.8,88,30.11,10.0,SSE,6.9,-,N/A,,Overcast,160,2013-05-15 11:55:00
7:15 AM,64.4,60.8,88,30.12,9.0,South,8.1,-,N/A,,Overcast,170,2013-05-15 12:15:00
7:35 AM,66.2,62.6,88,30.13,10.0,South,6.9,-,N/A,,Overcast,180,2013-05-15 12:35:00
7:55 AM,66.2,62.6,88,30.14,10.0,South,6.9,-,N/A,,Overcast,190,2013-05-15 12:55:00
8:15 AM,66.2,62.6,88,30.13,10.0,South,8.1,-,N/A,,Overcast,180,2013-05-15 13:15:00
8:35 AM,66.2,62.6,88,30.12,10.0,SSE,6.9,-,N/A,,Overcast,160,2013-05-15 13:35:00
8:55 AM,68.0,62.6,83,30.12,10.0,South,11.5,16.1,N/A,,Overcast,170,2013-05-15 13:55:00
9:15 AM,69.8,62.6,78,30.12,10.0,SSE,6.9,-,N/A,,Overcast,160,2013-05-15 14:15:00
9:35 AM,69.8,62.6,78,30.12,10.0,South,9.2,-,N/A,,Overcast,170,2013-05-15 14:35:00
9:55 AM,71.6,62.6,73,30.12,10.0,South,11.5,-,N/A,,Overcast,170,2013-05-15 14:55:00
10:15 AM,71.6,62.6,73,30.12,10.0,South,8.1,-,N/A,,Overcast,180,2013-05-15 15:15:00
10:35 AM,71.6,62.6,73,30.11,10.0,South,11.5,-,N/A,,Overcast,170,2013-05-15 15:35:00
10:55 AM,71.6,62.6,73,30.10,10.0,South,9.2,-,N/A,Thunderstorm,Overcast,170,2013-05-15 15:55:00
11:15 AM,69.8,62.6,78,30.12,9.0,South,6.9,-,0.01,,Overcast,170,2013-05-15 16:15:00
11:35 AM,69.8,64.4,83,30.12,10.0,SSE,6.9,-,0.02,Thunderstorm,Overcast,150,2013-05-15 16:35:00
11:55 AM,69.8,64.4,83,30.12,7.0,SSE,8.1,-,0.05,,Mostly Cloudy,150,2013-05-15 16:55:00
12:15 PM,68.0,64.4,88,30.11,10.0,SSE,9.2,-,0.02,,Mostly Cloudy,160,2013-05-15 17:15:00
12:35 PM,68.0,64.4,88,30.10,8.0,SSE,6.9,-,0.05,,Mostly Cloudy,160,2013-05-15 17:35:00
12:55 PM,68.0,64.4,88,30.09,10.0,South,11.5,16.1,0.08,,Mostly Cloudy,170,2013-05-15 17:55:00
1:15 PM,66.2,62.6,88,30.09,9.0,SSE,9.2,18.4,0.03,,Overcast,160,2013-05-15 18:15:00
1:35 PM,66.2,62.6,88,30.08,9.0,SSE,8.1,-,0.08,,Overcast,160,2013-05-15 18:35:00
1:55 PM,66.2,62.6,88,30.08,10.0,South,6.9,-,0.09,,Overcast,170,2013-05-15 18:55:00
2:15 PM,66.2,62.6,88,30.07,10.0,SSE,8.1,-,0.02,,Overcast,150,2013-05-15 19:15:00
2:35 PM,66.2,62.6,88,30.06,9.0,SSE,6.9,-,0.04,,Overcast,150,2013-05-15 19:35:00
2:55 PM,66.2,62.6,88,30.04,10.0,SSE,9.2,-,0.06,,Mostly Cloudy,150,2013-05-15 19:55:00
3:15 PM,66.2,62.6,88,30.04,10.0,South,8.1,-,0.01,,Mostly Cloudy,170,2013-05-15 20:15:00
3:35 PM,66.2,62.6,88,30.04,8.0,SSE,9.2,-,0.03,,Mostly Cloudy,160,2013-05-15 20:35:00
3:55 PM,64.4,60.8,88,30.01,8.0,SSE,9.2,16.1,0.07,,Overcast,150,2013-05-15 20:55:00
4:15 PM,66.2,62.6,88,30.01,10.0,South,10.4,-,N/A,,Mostly Cloudy,170,2013-05-15 21:15:00
4:35 PM,66.2,62.6,88,30.00,10.0,SSE,9.2,-,N/A,,Overcast,160,2013-05-15 21:35:00
4:55 PM,68.0,62.6,83,29.99,10.0,SSE,9.2,-,N/A,,Overcast,150,2013-05-15 21:55:00
5:15 PM,68.0,62.6,83,29.97,10.0,SE,8.1,-,N/A,,Overcast,140,2013-05-15 22:15:00
5:35 PM,69.8,62.6,78,29.98,10.0,SSE,12.7,16.1,N/A,,Overcast,150,2013-05-15 22:35:00
5:55 PM,68.0,62.6,83,29.97,10.0,SSE,8.1,-,N/A,,Overcast,160,2013-05-15 22:55:00
6:15 PM,68.0,62.6,83,29.96,10.0,SE,9.2,-,N/A,,Overcast,140,2013-05-15 23:15:00
6:35 PM,68.0,64.4,88,29.94,10.0,SSE,8.1,17.3,N/A,,Mostly Cloudy,160,2013-05-15 23:35:00
6:55 PM,69.8,62.6,78,29.94,10.0,SSE,8.1,-,N/A,,Scattered Clouds,160,2013-05-15 23:55:00
7:15 PM,68.0,62.6,83,29.94,10.0,South,5.8,-,N/A,,Clear,180,2013-05-16 00:15:00
7:35 PM,68.0,62.6,83,29.94,10.0,SSE,8.1,-,N/A,,Scattered Clouds,150,2013-05-16 00:35:00
7:55 PM,68.0,62.6,83,29.93,10.0,SSE,8.1,-,N/A,,Partly Cloudy,150,2013-05-16 00:55:00
8:15 PM,66.2,62.6,88,29.93,10.0,SE,6.9,-,N/A,,Clear,140,2013-05-16 01:15:00
8:35 PM,66.2,62.6,88,29.94,10.0,SE,4.6,-,N/A,,Partly Cloudy,130,2013-05-16 01:35:00
8:55 PM,66.2,62.6,88,29.95,10.0,SE,4.6,-,N/A,,Mostly Cloudy,140,2013-05-16 01:55:00
9:15 PM,66.2,62.6,88,29.94,10.0,SE,5.8,-,N/A,,Overcast,130,2013-05-16 02:15:00
9:35 PM,66.2,62.6,88,29.93,10.0,SE,5.8,-,N/A,,Overcast,140,2013-05-16 02:35:00
9:55 PM,66.2,62.6,88,29.94,10.0,SE,5.8,-,N/A,,Overcast,140,2013-05-16 02:55:00
10:15 PM,66.2,62.6,88,29.95,10.0,SSE,6.9,-,N/A,,Overcast,160,2013-05-16 03:15:00
10:35 PM,66.2,62.6,88,29.95,10.0,SSE,11.5,-,N/A,,Mostly Cloudy,160,2013-05-16 03:35:00
10:55 PM,66.2,62.6,88,29.95,10.0,SSE,8.1,-,N/A,,Overcast,160,2013-05-16 03:55:00
11:15 PM,66.2,62.6,88,29.94,10.0,SE,9.2,-,N/A,,Overcast,140,2013-05-16 04:15:00
11:35 PM,66.2,62.6,88,29.93,10.0,SE,9.2,-,N/A,,Overcast,140,2013-05-16 04:35:00
11:55 PM,66.2,62.6,88,29.93,10.0,SSE,8.1,-,N/A,,Overcast,150,2013-05-16 04:55:00